Starlink 5464

operational
NORAD ID: 54758 Int'l Des: 2022-175 Owner: SPXS Country: US Constellation: starlink
LEOCIRCULAR

About Starlink 5464

Description loading...

Live Position

Loading 3D Globe...

Upcoming Passes

Altitude History

Altitude vs Time

uPlot chart will show altitude changes over time

Two-Line Element Set

1 54758U 22175A 25338.68229223 .00000750 00000-0 65227-4 0 9999
2 54758 53.2171 105.8198 0001270 87.4508 272.6630 15.08839967165648
Epoch: Dec 4, 2025 • Age: 29 hours

Current Status

Altitude 539.9 km
Velocity 7.60 km/s
Sub-Earth Point 21.81°N, 136.85°W
Launch Date Dec 17, 2022
Age 2.9 years
Type internet

Technical Details

Classification Payload
Mass 305.00 kg
Dry Mass 290.00 kg
Total Mass 305.00 kg
Length 0.20 m
Diameter 2.80 m
Span 9.00 m
Shape Box + pan
Manufacturer SPXS
Bus Type Starlink
Phase Status In Orbit
Owner/State SPXS/US

Large Constellations

Loading constellations...